Mobile Site You Are Here >  >  >  > Tyler Horan 2014 Minor League Gamelogs & Splits


Tyler Horan

Tyler Roy Horan

Position: Outfielder
Bats: Left, Throws: Right
Height: 6' 2", Weight: 230 lb.

Born: December 2, 1990 in Middleboro, Massachusetts, US
School: Virginia Polytechnic Institute and State University (Blacksburg, VA)

Drafted by the San Francisco Giants in the 8th round of the 2013 MLB June Amateur Draft from Virginia Polytechnic Institute and State University (Blacksburg, VA).

Tyler Horan
/ Gamelogs & Splits
 Batting: 2014 / 2013

2014 Player Batting Gamelog

Rk Date Lev Tm   Opp PA AB R H 2B 3B HR RBI BB IBB SO HBP SH SF GDP SB CS Pos E
1 2014-04-03 A-SALL Augusta GreenJackets Charleston RiverDogs 4 4 0 0 0 0 0 0 0 0 3 0 0 0 0 0 0 RF 0
2 2014-04-04 A-SALL Augusta GreenJackets Charleston RiverDogs 4 2 1 1 0 0 0 0 2 0 1 0 0 0 0 1 0 RF 0
3 2014-04-05 A-SALL Augusta GreenJackets Charleston RiverDogs 4 4 1 2 1 0 0 1 0 0 1 0 0 0 0 0 0 RF 0
4 2014-04-06 A-SALL Augusta GreenJackets Charleston RiverDogs 4 4 0 2 1 0 0 1 0 0 1 0 0 0 0 0 0 RF 0
5 2014-04-08 A-SALL Augusta GreenJackets @ Savannah Sand Gnats 3 3 0 0 0 0 0 0 0 0 2 0 0 0 0 0 0 RF 0
6 2014-04-08 (2) A-SALL Augusta GreenJackets @ Savannah Sand Gnats 3 3 0 0 0 0 0 0 0 0 1 0 0 0 0 0 0 RF 0
7 2014-04-09 A-SALL Augusta GreenJackets @ Savannah Sand Gnats 5 4 1 0 0 0 0 1 1 0 2 0 0 0 0 0 0 RF 0
8 2014-04-12 A-SALL Augusta GreenJackets @ Charleston RiverDogs 4 4 1 2 0 0 0 0 0 0 0 0 0 0 0 0 0 RF 0
9 2014-04-13 A-SALL Augusta GreenJackets @ Charleston RiverDogs 4 4 0 4 1 0 0 0 0 0 0 0 0 0 0 0 0 RF 0
10 2014-04-14 A-SALL Augusta GreenJackets Savannah Sand Gnats 3 3 0 0 0 0 0 0 0 0 1 0 0 0 0 0 0 0
11 2014-04-16 A-SALL Augusta GreenJackets Savannah Sand Gnats 4 4 0 0 0 0 0 0 0 0 3 0 0 0 0 0 0 RF 0
12 2014-04-17 A-SALL Augusta GreenJackets @ Lexington Legends 4 4 1 2 0 0 1 2 0 0 0 0 0 0 0 0 0 RF 0
13 2014-04-18 A-SALL Augusta GreenJackets @ Lexington Legends 5 5 0 0 0 0 0 0 0 0 3 0 0 0 0 0 0 RF 0
14 2014-04-21 A-SALL Augusta GreenJackets Hagerstown Suns 4 3 1 2 1 0 0 0 1 0 0 0 0 0 1 1 0 RF 0
15 2014-04-22 A-SALL Augusta GreenJackets Hagerstown Suns 4 4 0 1 0 0 0 0 0 0 2 0 0 0 0 0 0 RF 0
16 2014-04-23 A-SALL Augusta GreenJackets Hagerstown Suns 6 3 0 1 1 0 0 1 2 1 1 1 0 0 0 0 0 RF 0
17 2014-04-24 A-SALL Augusta GreenJackets Asheville Tourists 4 4 1 2 0 0 0 1 0 0 0 0 0 0 0 0 0 RF 0
18 2014-04-25 A-SALL Augusta GreenJackets Asheville Tourists 4 4 1 2 1 0 0 0 0 0 1 0 0 0 0 0 0 RF 0
19 2014-04-26 A-SALL Augusta GreenJackets Asheville Tourists 4 4 1 1 0 0 0 0 0 0 1 0 0 0 0 0 0 0
20 2014-04-27 A-SALL Augusta GreenJackets Asheville Tourists 3 3 0 1 0 0 0 0 0 0 0 0 0 0 0 0 1 RF 0
21 2014-04-29 A-SALL Augusta GreenJackets @ Charleston RiverDogs 4 4 0 1 0 1 0 1 0 0 1 0 0 0 0 0 0 RF 0
22 2014-04-30 A-SALL Augusta GreenJackets @ Charleston RiverDogs 5 4 1 2 2 0 0 1 1 0 2 0 0 0 0 0 0 RF 0
23 2014-05-01 A-SALL Augusta GreenJackets @ Charleston RiverDogs 3 2 0 1 1 0 0 0 1 0 0 0 0 0 0 0 0 RF 0
24 2014-05-02 A-SALL Augusta GreenJackets Greenville Drive 4 4 1 1 0 0 0 1 0 0 0 0 0 0 0 0 0 RF 0
25 2014-05-03 A-SALL Augusta GreenJackets Greenville Drive 4 3 1 1 0 0 1 2 1 0 0 0 0 0 0 0 0 RF 0
26 2014-05-04 A-SALL Augusta GreenJackets Greenville Drive 4 3 0 1 1 0 0 0 0 0 1 1 0 0 0 0 0 RF 0
27 2014-05-05 A-SALL Augusta GreenJackets Greenville Drive 4 4 0 2 1 0 0 0 0 0 0 0 0 0 0 0 0 RF 0
28 2014-05-07 A-SALL Augusta GreenJackets @ Delmarva Shorebirds 4 4 0 2 1 0 0 0 0 0 0 0 0 0 0 0 0 RF 0
29 2014-05-08 A-SALL Augusta GreenJackets @ Delmarva Shorebirds 3 3 0 0 0 0 0 0 0 0 2 0 0 0 0 0 0 RF 0
30 2014-05-09 A-SALL Augusta GreenJackets @ Delmarva Shorebirds 4 4 0 1 0 1 0 2 0 0 2 0 0 0 0 0 0 RF 0
31 2014-05-10 A-SALL Augusta GreenJackets @ Hickory Crawdads 4 4 0 1 0 0 0 0 0 0 2 0 0 0 0 0 0 RF 0
32 2014-05-11 A-SALL Augusta GreenJackets @ Hickory Crawdads 4 4 1 1 0 0 1 2 0 0 1 0 0 0 0 0 0 RF 1
33 2014-05-12 A-SALL Augusta GreenJackets @ Hickory Crawdads 4 4 1 2 1 1 0 0 0 0 0 0 0 0 0 0 0 RF 1
34 2014-05-13 A-SALL Augusta GreenJackets @ Hickory Crawdads 5 4 1 2 2 0 0 2 1 0 0 0 0 0 0 0 0 RF 0
35 2014-05-14 A-SALL Augusta GreenJackets West Virginia Power 4 4 1 0 0 0 0 0 0 0 0 0 0 0 0 0 0 RF 0
36 2014-05-15 A-SALL Augusta GreenJackets West Virginia Power 4 4 0 0 0 0 0 0 0 0 2 0 0 0 0 0 0 RF 0
37 2014-05-16 A-SALL Augusta GreenJackets West Virginia Power 4 4 0 0 0 0 0 0 0 0 2 0 0 0 0 0 0 RF 0
38 2014-05-17 A-SALL Augusta GreenJackets Greensboro Grasshoppers 5 5 0 0 0 0 0 0 0 0 3 0 0 0 0 0 0 RF 0
39 2014-05-18 A-SALL Augusta GreenJackets Greensboro Grasshoppers 3 3 0 1 0 0 0 0 0 0 1 0 0 0 0 0 1 RF 0
40 2014-05-19 A-SALL Augusta GreenJackets Greensboro Grasshoppers 4 3 0 0 0 0 0 0 1 0 3 0 0 0 0 0 0 RF 0
41 2014-05-20 A-SALL Augusta GreenJackets Greensboro Grasshoppers 5 5 1 1 0 1 0 1 0 0 0 0 0 0 0 0 0 RF 0
42 2014-05-22 A-SALL Augusta GreenJackets @ Greenville Drive 4 4 0 1 0 0 0 0 0 0 3 0 0 0 0 1 0 RF 0
43 2014-05-23 A-SALL Augusta GreenJackets @ Greenville Drive 4 3 0 0 0 0 0 0 1 0 3 0 0 0 0 0 0 RF 0
44 2014-05-24 A-SALL Augusta GreenJackets @ Greenville Drive 5 4 2 2 0 1 1 3 0 0 0 1 0 0 0 0 0 RF 0
45 2014-05-25 A-SALL Augusta GreenJackets @ Greenville Drive 5 5 3 3 1 0 1 1 0 0 1 0 0 0 0 1 0 RF 0
46 2014-05-26 A-SALL Augusta GreenJackets Savannah Sand Gnats 3 3 0 1 0 0 0 0 0 0 0 0 0 0 0 0 0 RF 0
47 2014-05-29 A-SALL Augusta GreenJackets @ Lexington Legends 4 3 1 0 0 0 0 0 1 0 0 0 0 0 0 0 0 RF 0
48 2014-05-30 A-SALL Augusta GreenJackets @ Lexington Legends 5 3 0 0 0 0 0 0 2 0 1 0 0 0 0 0 0 RF 0
49 2014-05-31 A-SALL Augusta GreenJackets @ Lexington Legends 5 4 1 0 0 0 0 0 1 0 1 0 0 0 0 0 0 RF 0
50 2014-06-02 A-SALL Augusta GreenJackets Rome Braves 4 4 1 2 0 0 0 1 0 0 2 0 0 0 0 0 0 RF 0
51 2014-06-03 A-SALL Augusta GreenJackets Rome Braves 4 4 0 0 0 0 0 0 0 0 4 0 0 0 0 0 0 RF 0
52 2014-06-05 A-SALL Augusta GreenJackets Lexington Legends 5 4 2 1 0 0 0 1 1 0 0 0 0 0 0 0 0 RF 0
53 2014-06-06 A-SALL Augusta GreenJackets Lexington Legends 5 4 2 0 0 0 0 0 1 0 2 0 0 0 0 0 0 RF 0
54 2014-06-07 A-SALL Augusta GreenJackets Lexington Legends 5 5 1 1 0 0 0 0 0 0 2 0 0 0 0 0 0 RF 0
55 2014-06-08 A-SALL Augusta GreenJackets Lexington Legends 3 3 0 0 0 0 0 0 0 0 1 0 0 0 0 0 0 RF 0
56 2014-06-10 A-SALL Augusta GreenJackets @ Rome Braves 4 4 0 1 0 0 0 0 0 0 0 0 0 0 0 0 0 RF 0
57 2014-06-11 A-SALL Augusta GreenJackets @ Rome Braves 7 5 0 0 0 0 0 0 2 0 0 0 0 0 0 0 0 RF 0
58 2014-06-12 A-SALL Augusta GreenJackets @ Savannah Sand Gnats 3 3 1 1 0 0 1 1 0 0 1 0 0 0 0 0 0 RF 0
59 2014-06-12 (2) A-SALL Augusta GreenJackets @ Savannah Sand Gnats 3 3 0 1 0 0 0 0 0 0 1 0 0 0 0 0 0 RF 0
60 2014-06-13 A-SALL Augusta GreenJackets @ Savannah Sand Gnats 5 4 2 2 0 0 1 1 1 0 1 0 0 0 0 0 0 RF 0
61 2014-06-15 A-SALL Augusta GreenJackets @ Savannah Sand Gnats 4 3 0 1 0 0 0 2 0 0 0 1 0 0 0 1 0 RF 0
62 2014-06-19 A-SALL Augusta GreenJackets Asheville Tourists 4 3 0 0 0 0 0 0 1 0 2 0 0 0 0 0 0 RF 0
63 2014-06-20 A-SALL Augusta GreenJackets Asheville Tourists 4 3 0 0 0 0 0 1 0 0 2 0 0 1 0 0 0 RF 0
64 2014-06-21 A-SALL Augusta GreenJackets Asheville Tourists 4 3 0 1 0 0 0 0 1 0 1 0 0 0 0 0 0 RF 0
65 2014-06-22 A-SALL Augusta GreenJackets Asheville Tourists 4 4 0 2 0 0 0 0 0 0 0 0 0 0 0 0 0 RF 0
66 2014-06-23 A-SALL Augusta GreenJackets Rome Braves 4 4 0 1 1 0 0 0 0 0 1 0 0 0 0 0 0 RF 0
67 2014-06-24 A-SALL Augusta GreenJackets Rome Braves 4 2 0 0 0 0 0 1 1 0 0 0 0 1 0 1 1 RF 0
68 2014-06-25 A-SALL Augusta GreenJackets Rome Braves 3 3 0 0 0 0 0 0 0 0 2 0 0 0 0 0 0 RF 0
69 2014-06-26 A-SALL Augusta GreenJackets Rome Braves 4 3 1 3 0 0 1 5 1 0 0 0 0 0 0 0 0 RF 0
70 2014-06-27 A-SALL Augusta GreenJackets @ Lexington Legends 4 4 0 1 0 0 0 0 0 0 1 0 0 0 0 0 0 RF 0
71 2014-06-28 A-SALL Augusta GreenJackets @ Lexington Legends 5 4 3 2 0 0 1 1 1 0 0 0 0 0 0 0 0 RF 0
72 2014-06-29 A-SALL Augusta GreenJackets @ Lexington Legends 4 4 0 1 0 0 0 0 0 0 0 0 0 0 0 0 0 RF 0
73 2014-06-30 A-SALL Augusta GreenJackets @ Lexington Legends 4 4 0 0 0 0 0 0 0 0 2 0 0 0 0 0 0 RF 0
74 2014-07-01 A-SALL Augusta GreenJackets @ Rome Braves 5 3 1 0 0 0 0 0 0 0 0 2 0 0 0 0 1 CF,RF 0
75 2014-07-02 A-SALL Augusta GreenJackets @ Rome Braves 4 4 0 2 1 0 0 1 0 0 0 0 0 0 0 0 0 RF 0
76 2014-07-03 A-SALL Augusta GreenJackets @ Rome Braves 4 4 0 0 0 0 0 0 0 0 1 0 0 0 0 0 0 CF,RF 0
77 2014-07-04 A-SALL Augusta GreenJackets Greenville Drive 5 4 3 4 1 0 1 4 1 0 0 0 0 0 0 0 0 RF 0
78 2014-07-05 A-SALL Augusta GreenJackets Greenville Drive 4 4 2 2 0 0 1 1 0 0 1 0 0 0 0 0 0 RF 0
79 2014-07-06 A-SALL Augusta GreenJackets Greenville Drive 5 5 1 1 0 0 0 0 0 0 2 0 0 0 0 0 0 CF 0
80 2014-07-07 A-SALL Augusta GreenJackets @ Savannah Sand Gnats 4 4 0 3 0 0 0 1 0 0 0 0 0 0 0 1 0 RF 0
81 2014-07-08 A-SALL Augusta GreenJackets @ Savannah Sand Gnats 4 4 1 1 1 0 0 0 0 0 0 0 0 0 0 0 0 CF,RF 0
82 2014-07-09 A-SALL Augusta GreenJackets @ Savannah Sand Gnats 5 5 1 1 0 0 1 1 0 0 1 0 0 0 1 0 0 RF 0
83 2014-07-10 A-SALL Augusta GreenJackets @ Greenville Drive 5 4 1 1 0 0 0 0 1 0 1 0 0 0 0 0 0 RF 0
84 2014-07-11 A-SALL Augusta GreenJackets @ Greenville Drive 4 3 0 0 0 0 0 0 1 0 0 0 0 0 1 0 0 CF,RF 0
85 2014-07-12 A-SALL Augusta GreenJackets @ Greenville Drive 4 4 0 1 0 0 0 0 0 0 0 0 0 0 0 0 0 RF 1
86 2014-07-13 A-SALL Augusta GreenJackets @ Greenville Drive 1 1 0 0 0 0 0 0 0 0 0 0 0 0 1 0 0 0
87 2014-07-15 A-SALL Augusta GreenJackets Kannapolis Intimidators 6 5 1 0 0 0 0 0 1 0 2 0 0 0 0 0 0 CF,RF 0
88 2014-07-16 A-SALL Augusta GreenJackets Kannapolis Intimidators 4 4 0 0 0 0 0 0 0 0 3 0 0 0 0 0 0 RF 1
89 2014-07-17 A-SALL Augusta GreenJackets Kannapolis Intimidators 4 3 0 1 0 0 0 0 1 0 1 0 0 0 0 0 0 RF 0
90 2014-07-18 A-SALL Augusta GreenJackets @ Charleston RiverDogs 4 3 0 0 0 0 0 0 1 0 0 0 0 0 0 0 0 RF 0
91 2014-07-19 A-SALL Augusta GreenJackets @ Charleston RiverDogs 5 3 0 1 0 0 0 0 2 0 0 0 0 0 0 0 0 RF 0
92 2014-07-20 A-SALL Augusta GreenJackets @ Charleston RiverDogs 6 5 3 2 0 0 1 3 1 0 0 0 0 0 0 1 0 CF 0
93 2014-07-21 A-SALL Augusta GreenJackets @ Charleston RiverDogs 4 4 1 3 1 0 0 2 0 0 0 0 0 0 0 0 0 RF 0

2014 Player Batting Splits

Split G PA AB R H 2B 3B HR RBI SB CS BB SO BA OBP SLG OPS TB GDP HBP SH SF IBB
Total 93 387 344 52 94 21 5 13 50 8 4 35 91 .273 .349 .477 .826 164 4 6 0 2 1
Last 7 days 5 23 18 4 7 1 0 1 5 1 0 5 1 .389 .522 .611 1.133 11 0 0 0 0 0
Last 28 days 25 108 95 19 30 4 0 6 19 2 1 11 15 .316 .398 .547 .946 52 3 2 0 0 0
Last 90 days 76 318 282 45 75 16 5 12 43 6 4 29 70 .266 .343 .486 .829 137 3 5 0 2 0
Home 45 185 165 24 42 9 1 4 22 3 3 16 55 .255 .324 .394 .718 65 1 2 0 2 1
Away 48 202 179 28 52 12 4 9 28 5 1 19 36 .291 .371 .553 .924 99 3 4 0 0 0
vs RHP as LHB 89 290 259 78 19 4 9 41 27 68 .301 .369 .510 .879 132 2 2 0 2 1
vs LHP as LHB 41 97 85 16 2 1 4 9 8 23 .188 .289 .376 .665 32 2 4 0 0 0
April 22 89 81 10 26 8 1 1 9 2 1 7 26 .321 .382 .481 .864 39 1 1 0 0 1
May 27 111 100 14 24 8 4 4 14 2 1 9 28 .240 .315 .520 .835 52 0 2 0 0 0
June 24 100 87 13 21 1 0 4 14 2 1 10 25 .241 .320 .391 .711 34 0 1 0 2 0
July 20 87 76 15 23 4 0 4 13 2 1 9 12 .303 .391 .513 .904 39 3 2 0 0 0
2 outs, RISP 66 97 89 23 7 2 4 24 8 25 .258 .320 .517 .836 46 0 0 0 0 1
vs. Younger Pitchers 91 323 288 83 18 4 13 47 30 74 .288 .362 .514 .876 148 3 4 0 1 1
vs. Older Pitchers 36 64 56 11 3 1 0 3 5 17 .196 .281 .286 .567 16 1 2 0 1 0
Please note that splits include both major and minor league stats. We have decided that the splits across all levels is more useful than just minor league stats.

About the Minor League Data

Performance data on minor and international leagues is licensed from and provided by the SABR Minor Leagues Database, a community project sponsored by the Minor Leagues Committee of the Society for American Baseball Research.

The database is under active development. Many statistics are incomplete due to ongoing research and/or limitations in published sources. To learn more about these limitations, or to find out how to contribute, click here.

Minor league Total Zone (Rctch&Rtz, 2005-2009) data provided by Baseballprojection.com and Minorleaguesplits.com.